Temperature
10 10 10 10 10 10 10 10 10 10 10 10 10 10 10 10 9 9 9 10 10 10 10 10 9 9 10 10 9 9 9 9 9 9 9 8 8 8 8 8 8 8 8
10 10 10 10 10 10 10 10 10 9 10 9 9 9 9 9 9 9 9 9 9 9 9 9 9 9 9 9 9 9 9 8 8 8 8 8 8 8 8 8 8 8 8
9 9 9 9 9 9 9 9 9 9 9 9 9 9 9 9 9 8 8 8 8 9 9 8 8 8 8 8 8 8 8 8 8 8 7 7 7 7 7 8 8 7 7
9 9 9 9 9 9 9 9 9 9 8 8 8 8 8 8 8 8 8 8 8 8 8 8 8 8 8 8 8 8 7 7 7 7 7 7 7 7 7 7 7 7 7
9 9 9 8 8 8 8 8 8 8 8 8 8 8 8 8 8 8 8 8 7 7 7 7 7 7 7 7 7 7 7 7 6 6 6 6 6 6 6 6 6 6 6
8 8 8 8 8 8 8 8 8 7 7 7 7 7 7 7 7 7 7 7 7 7 7 7 7 7 7 7 6 6 6 6 6 6 6 6 6 6 6 6 6 6 6
8 8 8 8 8 7 7 7 7 7 7 7 7 6 7 7 7 7 7 7 7 6 6 6 6 6 6 6 6 6 6 6 6 6 5 5 5 5 5 5 5 5 5
7 7 7 7 7 7 7 7 6 6 6 6 6 6 6 6 6 6 6 6 6 6 6 6 6 6 6 6 6 6 6 5 5 5 5 5 5 5 5 5 5 5 5
7 7 7 7 7 6 6 6 6 6 6 6 5 5 5 5 5 5 5 5 5 5 5 5 5 5 5 5 5 5 5 5 5 5 4 5 5 5 4 4 4 5 4
6 6 6 6 6 6 6 6 5 5 5 5 5 5 5 5 5 4 5 5 5 5 5 5 5 5 5 5 5 5 5 4 4 4 4 4 4 4 4 4 4 4 4
6 6 6 6 6 6 5 5 5 5 5 5 5 5 4 4 4 4 4 4 4 4 4 4 4 4 4 4 4 4 4 4 4 4 4 4 4 4 3 4 4 4 4
5 5 5 5 5 5 5 5 5 5 4 4 4 4 4 4 4 3 3 3 3 3 4 4 4 4 3 3 3 3 3 3 3 3 3 3 3 3 3 3 3 3 3
5 5 5 5 5 5 4 4 4 4 4 4 4 4 3 3 3 3 3 3 2 3 3 3 3 3 3 3 3 3 3 3 3 3 3 3 3 3 3 3 3 3 3
5 4 4 4 4 4 4 4 4 4 3 3 3 3 3 3 3 2 2 2 2 2 2 2 2 2 2 2 2 2 2 2 2 2 2 2 2 2 2 2 2 2 2
4 4 4 4 4 4 4 3 3 3 3 3 3 2 2 2 2 2 2 2 1 1 1 2 2 2 2 2 2 2 2 2 2 2 2 2 2 2 2 2 2 2 2
3 3 3 3 3 3 3 3 3 2 2 2 2 2 2 2 2 1 1 1 1 1 0 1 1 1 1 1 1 1 1 1 1 1 1 1 1 1 1 1 1 1 1
3 3 3 3 3 3 2 2 2 2 2 2 2 1 1 1 1 1 1 1 1 0 0 0 0 1 1 1 1 1 1 1 1 1 1 1 1 1 1 1 1 1 1
2 2 2 2 2 2 2 2 2 2 1 1 1 1 1 1 1 1 1 0 0 0 -0 -0 0 -0 0 0 0 0 0 0 0 0 0 0 0 0 0 0 0 0 0
2 2 2 2 2 2 2 2 2 1 1 1 1 1 0 0 0 0 0 0 -0 -0 -0 -1 -1 -0 -0 -1 -0 -0 -0 -0 -0 -0 -0 -0 -0 -0 -0 -0 -0 -0 -0
1 1 1 2 2 1 1 1 1 1 1 0 0 0 0 0 -0 -0 -0 -0 -0 -1 -1 -1 -1 -1 -1 -1 -1 -1 -1 -1 -0 -0 -1 -1 -0 -1 -1 -1 -1 -1 -1
1 1 1 1 1 1 1 1 0 0 0 -0 -0 -0 -0 -0 -1 -1 -1 -1 -1 -1 -1 -1 -2 -2 -2 -2 -2 -2 -2 -1 -1 -1 -1 -1 -1 -1 -1 -1 -1 -1 -1
1 0 0 1 0 0 0 0 -0 -0 -1 -1 -1 -1 -1 -1 -1 -1 -1 -1 -1 -2 -2 -2 -2 -2 -2 -2 -2 -2 -2 -2 -2 -2 -2 -1 -1 -1 -1 -1 -2 -2 -2
0 -0 0 0 -0 -0 -0 -0 -1 -1 -1 -1 -1 -1 -1 -1 -2 -2 -2 -2 -2 -2 -2 -2 -2 -2 -2 -3 -3 -3 -3 -3 -3 -3 -3 -2 -2 -2 -2 -2 -2 -2 -2
-0 -0 -0 -0 -0 -1 -1 -1 -1 -1 -1 -1 -1 -2 -2 -2 -2 -2 -2 -2 -2 -2 -2 -2 -3 -3 -3 -3 -3 -3 -3 -3 -3 -3 -3 -3 -2 -2 -2 -2 -3 -3 -3
-1 -1 -1 -1 -1 -1 -1 -1 -2 -2 -2 -2 -2 -2 -2 -2 -2 -3 -3 -2 -2 -2 -3 -3 -3 -3 -3 -3 -3 -4 -4 -4 -4 -3 -3 -4 -3 -3 -3 -3 -3 -3 -3
-1 -1 -1 -1 -1 -1 -2 -2 -2 -2 -2 -2 -2 -3 -3 -3 -3 -3 -3 -3 -3 -3 -3 -3 -3 -3 -3 -3 -3 -4 -4 -4 -4 -4 -4 -4 -4 -4 -4 -4 -3 -3 -4
Wind_Speed
4 4 4 5 5 5 4 4 4 4 5 5 5 6 6 6 6 7 8 9 8 8 8 7 7 6 6 6 6 7 7 7 7 7 8 8 8 8 8 8 8 9 9
4 4 4 4 5 5 4 4 4 4 4 4 4 5 5 5 7 7 7 7 8 8 7 7 7 7 7 6 6 6 6 6 6 6 7 8 8 8 8 8 9 9 9
4 4 3 3 4 4 4 4 4 4 3 3 3 4 4 5 5 6 6 5 5 6 6 7 7 6 6 6 6 6 6 6 6 6 7 7 8 8 8 8 8 9 9
4 4 3 3 4 4 3 2 2 2 2 2 2 2 3 3 4 5 5 5 5 5 5 5 6 6 6 6 7 6 6 6 6 6 6 7 7 7 7 8 8 9 9
4 3 3 3 3 3 2 2 2 1 2 2 1 1 1 1 2 2 3 4 4 4 4 4 5 6 6 6 7 7 6 6 6 6 6 7 7 6 7 7 8 8 9
3 3 2 3 3 2 1 1 2 2 1 1 1 1 0 1 1 1 2 3 3 3 3 3 3 4 5 7 7 7 7 7 6 6 6 7 7 7 7 8 8 9 9
3 3 2 2 2 1 1 1 1 1 1 1 1 1 1 1 1 1 1 2 2 2 2 2 3 3 3 5 6 7 7 7 7 7 7 7 7 7 8 8 8 9 10
3 2 2 2 1 1 1 1 1 1 0 1 1 0 1 1 1 1 1 1 1 1 1 1 1 2 2 3 4 6 7 8 8 8 7 7 7 8 8 9 9 10 10
3 3 2 2 2 2 2 1 1 2 1 1 1 1 1 1 1 1 2 1 1 1 1 1 1 1 2 2 3 4 6 8 8 9 8 8 8 9 9 9 10 10 11
3 3 2 2 2 1 2 1 1 1 1 1 1 1 0 1 1 1 2 1 1 1 1 1 1 2 3 3 3 4 6 8 9 9 9 9 9 10 9 10 11 11 11
3 3 3 2 2 1 2 1 1 1 1 1 1 0 1 1 1 1 2 2 2 2 1 2 2 2 3 3 3 4 6 7 8 9 9 9 10 10 10 10 11 12 12
2 2 3 2 2 2 2 2 2 2 1 1 1 1 1 1 1 1 2 2 2 3 2 2 2 2 3 3 4 5 7 8 8 9 10 9 10 10 10 10 11 11 12
2 3 3 3 2 2 2 2 2 3 2 2 2 2 2 1 1 1 1 2 2 2 2 2 2 2 2 2 3 6 7 8 9 10 10 9 10 10 10 11 11 11 12
2 2 3 3 3 3 3 3 3 3 2 3 3 3 2 2 1 1 1 1 2 2 2 3 2 2 1 2 4 7 7 9 9 10 10 9 10 10 10 11 11 11 12
2 2 2 3 3 3 3 3 2 3 3 3 3 3 2 2 1 1 1 1 2 2 3 3 2 1 3 4 6 6 6 8 10 10 10 10 9 10 10 10 11 11 11
1 2 2 2 2 3 3 2 2 2 3 3 2 3 2 2 2 2 2 2 2 3 4 3 2 3 3 5 7 7 7 9 9 10 10 10 9 9 10 10 10 10 11
2 2 3 3 3 3 3 3 3 2 3 3 3 4 4 3 3 3 3 3 3 3 5 4 3 3 3 3 6 7 7 7 7 10 11 11 9 9 9 9 10 10 10
2 3 3 3 4 3 3 3 3 3 3 4 4 4 4 3 4 3 3 4 4 3 4 6 4 3 3 4 4 4 6 7 7 9 11 11 9 9 9 9 9 9 10
2 2 3 3 4 4 3 4 3 3 3 3 3 4 5 4 5 4 4 4 3 4 3 4 4 3 3 3 4 5 5 5 6 8 10 9 9 9 9 9 9 9 10
2 2 3 3 3 3 3 3 3 3 3 3 3 4 5 5 5 4 4 4 3 3 3 3 4 3 3 3 3 3 5 4 5 6 7 8 8 9 9 9 9 10 9
3 3 3 3 3 3 3 3 3 3 3 3 3 3 4 5 6 5 4 4 3 3 3 3 4 3 3 3 3 3 4 5 5 3 4 5 5 4 6 8 9 9 9
2 2 3 3 3 3 4 4 3 3 3 3 4 3 3 4 5 6 7 6 4 4 4 3 4 4 5 4 3 3 3 4 4 3 4 5 3 4 4 5 8 9 9
2 3 3 3 3 4 5 4 4 3 3 4 3 3 3 3 4 3 4 5 5 6 6 5 5 5 5 4 4 4 4 4 5 4 4 5 3 4 5 7 9 10 10
3 3 3 3 3 3 4 4 4 3 3 3 4 4 4 3 4 3 3 3 4 4 5 4 5 5 5 4 4 5 5 5 4 4 2 4 3 4 5 6 8 9 9
2 2 2 3 3 3 4 4 3 2 2 3 4 4 4 3 5 5 3 4 4 3 4 6 7 7 8 8 5 3 3 3 5 4 1 1 2 4 4 3 5 8 9
3 2 3 3 3 2 4 4 3 2 2 3 3 3 4 5 6 6 3 3 4 4 3 4 4 5 5 6 6 4 3 4 4 3 1 1 1 2 3 2 2 5 6
Wind_Direction
58 57 59 58 63 61 47 43 50 56 53 47 49 49 43 42 57 76 78 73 64 57 53 54 56 53 48 43 42 40 36 33 29 26 23 18 14 11 9 6 5 2 1
66 62 62 57 57 53 43 43 45 53 56 49 50 50 50 44 53 71 85 78 66 56 47 43 43 41 39 36 32 29 27 26 24 20 17 13 12 6 4 3 4 3 359
72 72 73 65 57 56 50 50 45 50 52 43 39 48 52 55 58 66 71 79 72 60 50 39 31 28 25 21 20 19 16 17 17 19 16 14 10 4 360 357 355 351 348
77 77 82 75 62 62 53 61 61 59 49 33 26 25 47 57 63 65 67 70 69 59 46 36 26 20 15 11 10 10 12 11 15 15 8 4 1 358 355 353 350 347 344
85 82 84 80 75 73 62 55 59 65 56 25 5 8 39 66 67 75 74 67 69 61 50 34 27 18 12 7 2 1 1 4 5 6 1 356 352 348 342 340 341 341 338
92 85 81 78 81 87 71 65 70 62 72 24 354 355 329 160 98 99 93 80 79 65 55 38 25 11 9 2 355 353 354 353 352 352 349 346 344 341 336 333 335 335 333
114 103 89 92 92 113 118 96 85 91 55 31 31 348 314 226 148 162 123 107 92 85 74 51 34 20 1 352 349 347 346 345 344 337 333 334 334 336 332 329 328 325 324
134 132 118 125 120 128 125 118 106 99 102 71 86 320 301 309 281 214 171 167 154 125 104 59 37 18 358 346 332 337 336 336 333 330 327 328 328 326 325 325 323 321 322
137 135 142 138 138 146 163 164 149 133 177 253 57 133 163 246 308 274 221 194 186 183 205 219 232 291 312 314 317 321 326 323 324 323 321 321 322 323 322 325 325 321 320
156 155 154 151 145 146 154 179 154 149 154 205 290 320 173 168 191 298 294 254 222 227 238 267 252 270 288 291 300 317 320 317 316 317 316 316 318 319 319 322 326 326 320
175 172 171 165 158 157 160 159 164 164 175 181 195 250 295 315 248 207 266 288 302 276 258 256 241 244 261 272 277 298 310 313 313 313 310 309 311 315 317 321 324 325 322
186 185 185 175 175 173 185 189 185 185 193 195 207 197 182 208 245 233 252 278 280 274 272 256 246 232 251 260 273 296 301 306 310 311 308 304 307 309 312 316 317 317 319
212 207 196 191 194 194 194 188 191 200 200 202 215 222 214 228 232 235 241 276 287 283 274 264 244 235 264 289 292 301 294 296 301 306 307 304 305 307 310 310 310 313 315
214 206 207 200 199 199 204 198 201 206 198 204 221 221 219 227 222 228 224 251 294 290 269 266 277 225 288 305 294 297 293 296 298 303 306 303 303 306 307 308 309 310 312
205 205 212 204 200 205 207 198 208 211 202 204 220 227 228 226 219 235 240 214 220 268 277 268 274 281 302 298 295 294 288 296 299 301 303 302 300 303 306 308 309 310 312
209 207 214 212 200 204 208 204 212 217 213 213 214 221 232 233 230 229 236 240 231 237 261 274 275 295 305 307 303 304 294 298 298 301 302 301 299 303 306 307 309 310 312
210 216 217 209 201 206 207 200 205 208 225 232 223 222 229 223 233 238 235 236 239 236 256 278 283 295 300 299 306 302 300 297 291 298 301 299 301 304 306 309 311 312 313
218 217 216 212 209 205 198 196 210 216 221 230 231 227 228 230 232 234 232 239 241 237 249 269 279 280 285 287 293 298 307 304 294 296 301 298 300 302 305 307 310 311 313
232 226 215 210 212 209 204 202 204 212 221 228 228 230 231 225 236 236 234 240 247 256 251 256 272 278 283 296 301 299 297 299 302 300 300 296 299 302 307 311 313 312 313
223 227 226 216 212 207 199 201 202 209 219 230 231 229 228 226 231 232 238 240 245 252 252 255 269 276 280 291 297 298 304 303 303 305 305 300 298 301 304 308 310 312 313
219 219 223 224 220 210 202 198 205 215 217 232 240 241 240 237 238 237 240 231 233 244 250 256 265 278 278 289 286 290 292 302 300 293 306 300 299 297 299 302 304 309 311
223 224 227 227 224 224 220 220 219 224 227 234 245 246 251 249 254 259 257 253 241 235 237 248 262 267 274 276 283 288 290 305 299 301 306 296 296 294 294 293 299 306 309
227 227 233 234 231 226 227 232 232 230 233 239 241 246 261 263 265 251 258 265 263 256 249 247 253 259 268 269 272 282 284 287 283 290 302 288 287 285 290 292 300 307 309
235 235 240 240 239 237 232 234 238 237 239 243 242 239 241 247 251 243 236 248 253 260 259 255 246 254 258 258 251 260 269 282 286 285 285 276 290 291 293 287 296 309 312
243 242 242 238 235 239 244 248 246 227 241 253 252 249 241 244 257 256 245 245 255 262 267 260 260 267 276 281 281 275 280 289 292 289 287 269 291 306 293 278 295 315 321
237 241 247 239 234 235 254 257 252 224 246 262 264 256 251 255 261 264 251 242 252 259 263 272 266 270 273 278 277 259 249 267 284 279 271 283 287 330 313 292 298 318 319
Height
1524 1525 1526 1526 1527 1527 1528 1528 1529 1530 1530 1531 1531 1532 1532 1533 1533 1533 1534 1534 1534 1534 1534 1534 1533 1532 1532 1531 1531 1530 1530 1530 1529 1529 1528 1528 1527 1526 1525 1525 1524 1523 1522
1523 1524 1524 1525 1525 1526 1527 1527 1528 1528 1529 1530 1530 1530 1531 1531 1532 1532 1532 1532 1532 1532 1532 1532 1531 1531 1530 1530 1529 1529 1528 1528 1527 1527 1526 1525 1525 1524 1523 1522 1522 1521 1520
1522 1523 1523 1524 1524 1524 1525 1526 1527 1527 1527 1528 1528 1529 1529 1530 1530 1530 1530 1530 1530 1530 1530 1530 1530 1529 1529 1528 1528 1527 1526 1525 1525 1525 1524 1523 1522 1522 1521 1520 1519 1518 1518
1521 1521 1522 1522 1523 1523 1524 1524 1525 1525 1526 1526 1526 1527 1527 1528 1528 1528 1528 1528 1528 1528 1528 1528 1528 1527 1527 1526 1526 1525 1524 1524 1523 1522 1521 1521 1520 1519 1519 1518 1517 1516 1515
1519 1519 1520 1520 1521 1521 1522 1522 1523 1523 1523 1524 1524 1525 1525 1525 1526 1526 1526 1526 1526 1526 1526 1526 1525 1525 1524 1524 1523 1523 1522 1521 1521 1520 1519 1518 1518 1517 1516 1515 1514 1513 1512
1517 1517 1518 1518 1519 1520 1520 1520 1521 1521 1522 1522 1522 1523 1523 1523 1524 1524 1524 1524 1524 1524 1523 1523 1523 1522 1521 1521 1521 1520 1519 1519 1518 1517 1517 1516 1515 1514 1513 1512 1511 1510 1509
1515 1515 1516 1516 1517 1517 1518 1518 1519 1519 1520 1520 1521 1521 1521 1521 1521 1522 1522 1522 1521 1521 1521 1520 1520 1520 1519 1518 1518 1517 1516 1516 1515 1514 1514 1513 1512 1511 1510 1509 1508 1507 1506
1512 1513 1513 1514 1515 1515 1515 1516 1517 1517 1517 1518 1519 1519 1519 1520 1518 1519 1519 1519 1519 1518 1518 1518 1517 1516 1516 1515 1515 1514 1513 1513 1512 1511 1511 1510 1509 1508 1507 1506 1505 1504 1502
1510 1511 1511 1512 1512 1513 1513 1513 1514 1515 1515 1516 1516 1517 1517 1517 1516 1516 1516 1516 1516 1516 1515 1515 1514 1514 1513 1512 1511 1511 1510 1509 1508 1508 1507 1506 1506 1505 1504 1502 1501 1500 1498
1507 1508 1508 1509 1510 1510 1510 1511 1511 1512 1513 1513 1514 1514 1515 1515 1515 1513 1514 1513 1513 1513 1512 1512 1511 1511 1510 1509 1508 1508 1507 1506 1505 1504 1503 1502 1502 1501 1500 1498 1497 1496 1495
1504 1505 1505 1506 1506 1507 1507 1508 1508 1509 1509 1510 1510 1511 1511 1512 1512 1511 1510 1510 1510 1510 1509 1508 1508 1507 1507 1506 1505 1504 1504 1503 1501 1500 1499 1498 1498 1497 1495 1494 1493 1491 1490
1501 1501 1502 1503 1503 1504 1504 1505 1505 1506 1506 1507 1507 1507 1508 1508 1508 1508 1508 1507 1506 1506 1506 1505 1504 1504 1503 1503 1502 1501 1500 1499 1498 1497 1496 1494 1493 1493 1491 1490 1489 1487 1486
1498 1498 1499 1499 1500 1500 1501 1502 1502 1502 1503 1503 1504 1504 1504 1505 1505 1505 1505 1503 1503 1502 1502 1502 1501 1501 1500 1499 1498 1497 1496 1495 1494 1493 1492 1490 1489 1488 1487 1486 1484 1483 1482
1494 1495 1495 1496 1496 1497 1498 1498 1499 1499 1499 1500 1500 1500 1501 1501 1501 1502 1502 1501 1500 1499 1498 1498 1498 1497 1497 1496 1495 1494 1492 1491 1490 1489 1488 1486 1485 1484 1483 1481 1480 1478 1477
1491 1492 1492 1492 1492 1493 1494 1495 1495 1495 1496 1496 1496 1497 1497 1497 1497 1497 1498 1498 1498 1496 1494 1494 1494 1493 1493 1492 1491 1489 1488 1487 1486 1485 1484 1482 1481 1480 1478 1477 1476 1474 1473
1488 1488 1488 1489 1489 1490 1490 1491 1491 1492 1492 1492 1493 1493 1492 1493 1493 1493 1494 1494 1494 1493 1491 1490 1490 1489 1488 1487 1487 1485 1484 1483 1482 1481 1479 1478 1477 1476 1474 1473 1471 1470 1468
1484 1484 1485 1485 1485 1486 1487 1487 1487 1488 1488 1488 1488 1488 1488 1489 1489 1489 1489 1490 1489 1489 1487 1486 1486 1485 1484 1483 1482 1481 1480 1478 1477 1477 1475 1474 1473 1471 1470 1469 1467 1466 1464
1480 1481 1481 1481 1482 1482 1483 1483 1484 1484 1484 1484 1484 1484 1484 1485 1485 1485 1485 1485 1485 1485 1484 1482 1481 1481 1480 1479 1478 1477 1476 1474 1473 1472 1471 1470 1468 1467 1466 1464 1463 1461 1460
1477 1477 1477 1478 1478 1478 1479 1479 1479 1480 1480 1480 1480 1480 1480 1480 1480 1480 1480 1480 1480 1480 1479 1478 1477 1476 1475 1475 1474 1472 1471 1470 1469 1468 1467 1466 1464 1463 1462 1460 1459 1457 1456
1473 1473 1474 1474 1474 1474 1474 1475 1475 1475 1476 1476 1476 1476 1476 1476 1476 1476 1476 1476 1476 1475 1475 1474 1473 1472 1471 1471 1469 1468 1466 1466 1465 1464 1463 1461 1460 1459 1458 1456 1455 1453 1451
1470 1470 1470 1470 1471 1471 1471 1471 1471 1471 1471 1471 1472 1472 1472 1472 1471 1472 1472 1471 1471 1471 1470 1470 1469 1468 1467 1466 1465 1464 1462 1461 1460 1459 1458 1457 1456 1455 1453 1452 1451 1449 1448
1467 1467 1467 1467 1467 1467 1467 1468 1467 1468 1467 1467 1467 1467 1467 1467 1467 1468 1468 1467 1467 1467 1466 1465 1465 1464 1463 1463 1462 1460 1459 1457 1455 1456 1454 1453 1452 1450 1449 1448 1447 1445 1444
1463 1463 1463 1463 1463 1463 1464 1464 1464 1463 1463 1463 1463 1463 1462 1462 1463 1463 1463 1463 1463 1462 1462 1462 1461 1460 1460 1459 1458 1457 1456 1454 1453 1452 1451 1448 1448 1446 1445 1444 1443 1441 1440
1460 1460 1459 1459 1459 1459 1460 1460 1460 1459 1459 1459 1459 1458 1458 1458 1459 1459 1458 1458 1458 1458 1458 1458 1457 1457 1456 1455 1455 1454 1452 1451 1449 1448 1447 1445 1443 1442 1441 1440 1439 1437 1436
1456 1456 1456 1456 1455 1456 1456 1456 1456 1455 1455 1455 1455 1455 1455 1454 1455 1455 1454 1454 1454 1454 1454 1454 1453 1453 1453 1452 1451 1450 1449 1447 1445 1444 1444 1442 1440 1438 1437 1436 1435 1434 1432
1452 1452 1452 1452 1452 1452 1452 1452 1452 1451 1451 1451 1451 1451 1451 1451 1451 1451 1450 1450 1449 1449 1450 1449 1449 1449 1449 1448 1448 1447 1446 1444 1442 1441 1440 1439 1437 1436 1433 1432 1432 1431 1429